Showing default

KINEIS-1D, 60082

Orbit data source: Space-Track

KINEIS-1D, 60082 is a French payload satellite in SSO that was launched on Thu, 20 Jun 2024 UTC via an ELECTRON launch vehicle from the Rocket Lab Launch Complex (RLLC). Payload-class satellites include a variety of spacecraft equipped with specific instruments for various scientific and technological missions. These include communications satellites like Starlink; space stations such as the ISS; scientific satellites like the Hubble; Earth observation satellites from companies like Planet Labs, Umbra, and HawkEye 360; GPS; miniature CubeSats for education and research; and military/defense satellites.

Loading next visibility...
Identifier
60082, 2024-114D
Orbit
SSO
Country
Flag of FRFR
Related business
Manufacturer
KINEIS
Mission
Operational Commercial Communications
Bus & Motor
CUBESAT 16U, Unknown motor
Mass
28 kg wet, 28 kg dry
Launch date (UTC)
2024-06-20 (1 year ago)
Launch vehicle
ELECTRON
Launch site
Rocket Lab Launch Complex (RLLC)
Object type
Payload
Rocket body
Debris
Shape & HBR
Box + 2 Pan + 1 Ant, 1.0 m
Radar Cross Section
0.229 m², Small (<0.1 m²)

Expand to show TLE details & history
Last TLE update: 4 hours ago

TLE from 4 hours ago
0 KINEIS-1D
1 60082U 24114D   25304.86814525  .00001095  00000-0  16700-3 0  9993
2 60082  98.0054 322.3764 0001460 150.5453 209.5838 14.75856667 73443
Epoch: 2025-10-31T20:50Z
TLE epoch observation values (Epoch: 2025-10-31T20:50:07.749Z)
Latitude
-0.00011°
Longitude
-30.56228°
Altitude
646.337 km
Speed
7.534 km/s
True Right ascension
21h 29m 30s
True Declination
0° 00' 00"
Sunlit
Object was in daylight at epoch
Visualization orbit readout
Latitude
Unknown
Longitude
Unknown
Altitude
Unknown
Speed
Unknown
Apparent Right ascension
Unknown
Apparent Declination
Unknown
Sunlit
N/A
Visualization observer readout
Local Sidereal Time
20:34:50
Azimuth
Unknown
Elevation
Unknown
Doppler factor
Unknown
Orbital elements
Apogee altitude
640.509 km
Perigee altitude
638.46 km
Semi-major axis
7,017.621 km
Eccentricity
0.00015
Inclination
98.0054°
RAAN
322.3764°
Arg. of periapsis
150.5453°
True anomaly
209.57554°
Mean anomaly
209.5838°
Eccentric anomaly
209.57967°
Mean motion
3.69197 °/min
Orbital period
97.51 mins
BSTAR
0.000167
Loading maneuver chart data...
Computing Atmospheric mass density...
Loading historical data...
Loading historical data...
Loading historical data...
Loading historical data...
Loading historical data...
Loading historical data...
Loading historical data...

Documentation

Showing up to 5 results
|